TimeEST,TemperatureF,Dew PointF,Humidity,Sea Level PressureIn,VisibilityMPH,Wind Direction,Wind SpeedMPH,Gust SpeedMPH,PrecipitationIn,Events,Conditions,WindDirDegrees,DateUTC
12:14 AM,28.0,24.8,88,30.15,7.0,SE,4.6,-,N/A,,Clear,140,2012-01-26 05:14:00
12:34 AM,28.2,25.3,89,30.13,5.0,SE,5.8,-,N/A,,Clear,140,2012-01-26 05:34:00
12:55 AM,28.4,25.5,89,30.12,5.0,SSE,4.6,-,N/A,,Clear,150,2012-01-26 05:55:00
1:14 AM,28.0,25.3,90,30.11,4.0,SE,4.6,-,N/A,,Clear,140,2012-01-26 06:14:00
1:35 AM,27.5,25.2,91,30.09,4.0,SE,4.6,-,N/A,,Scattered Clouds,130,2012-01-26 06:35:00
1:55 AM,28.4,26.2,92,30.08,4.0,SE,5.8,-,N/A,,Mostly Cloudy,130,2012-01-26 06:55:00
2:14 AM,29.1,26.4,90,30.08,5.0,SE,5.8,-,N/A,,Overcast,130,2012-01-26 07:14:00
2:35 AM,29.3,26.2,88,30.07,5.0,ESE,5.8,-,N/A,,Overcast,120,2012-01-26 07:35:00
2:55 AM,29.3,26.4,89,30.07,5.0,East,5.8,-,N/A,,Overcast,100,2012-01-26 07:55:00
3:14 AM,29.7,26.4,88,30.07,7.0,ESE,4.6,-,N/A,,Overcast,110,2012-01-26 08:14:00
3:35 AM,29.8,26.6,88,30.06,7.0,ESE,6.9,-,N/A,,Overcast,120,2012-01-26 08:35:00
3:55 AM,30.0,26.6,87,30.05,7.0,SE,8.1,-,N/A,,Overcast,130,2012-01-26 08:55:00
4:14 AM,30.0,27.0,88,30.05,7.0,SE,8.1,-,N/A,,Overcast,140,2012-01-26 09:14:00
4:35 AM,30.0,27.0,88,30.04,7.0,SE,5.8,-,N/A,,Overcast,140,2012-01-26 09:35:00
4:54 AM,30.2,27.1,88,30.04,7.0,SE,5.8,-,N/A,,Overcast,130,2012-01-26 09:54:00
5:14 AM,30.2,27.1,88,30.03,7.0,ESE,5.8,-,N/A,,Overcast,120,2012-01-26 10:14:00
5:35 AM,30.2,27.1,88,30.00,7.0,ESE,9.2,-,N/A,,Overcast,120,2012-01-26 10:35:00
5:55 AM,30.6,27.3,88,30.00,7.0,SE,10.4,-,N/A,,Overcast,130,2012-01-26 10:55:00
6:14 AM,30.7,27.5,88,29.99,7.0,ESE,9.2,-,N/A,,Overcast,120,2012-01-26 11:14:00
6:35 AM,30.9,27.5,87,29.98,7.0,ESE,8.1,-,N/A,,Overcast,120,2012-01-26 11:35:00
7:15 AM,31.1,28.0,88,29.99,5.0,SE,8.1,-,N/A,,Overcast,130,2012-01-26 12:15:00
7:34 AM,31.1,28.2,89,29.99,5.0,SE,8.1,-,N/A,,Overcast,140,2012-01-26 12:34:00
7:55 AM,31.1,28.2,89,29.96,5.0,East,5.8,-,N/A,,Overcast,100,2012-01-26 12:55:00
8:15 AM,31.1,28.4,90,29.97,5.0,ESE,5.8,-,N/A,,Overcast,120,2012-01-26 13:15:00
8:34 AM,31.5,28.9,90,29.95,3.0,ESE,6.9,-,N/A,,Overcast,110,2012-01-26 13:34:00
8:55 AM,31.6,29.1,90,29.93,3.0,East,4.6,-,N/A,,Overcast,90,2012-01-26 13:55:00
9:14 AM,32.0,29.5,90,29.91,3.0,East,6.9,-,N/A,,Overcast,90,2012-01-26 14:14:00
9:35 AM,32.0,29.8,92,29.91,3.0,East,6.9,-,N/A,,Overcast,100,2012-01-26 14:35:00
9:55 AM,32.2,30.2,92,29.90,3.0,East,6.9,-,N/A,,Overcast,90,2012-01-26 14:55:00
10:14 AM,32.9,30.6,91,29.92,4.0,East,4.6,-,N/A,,Overcast,90,2012-01-26 15:14:00
10:35 AM,33.1,30.9,92,29.92,4.0,ESE,5.8,-,N/A,,Overcast,110,2012-01-26 15:35:00
10:54 AM,33.3,31.1,92,29.91,4.0,East,5.8,-,N/A,,Overcast,100,2012-01-26 15:54:00
11:15 AM,33.8,31.1,90,29.89,4.0,ESE,6.9,-,N/A,,Overcast,120,2012-01-26 16:15:00
11:35 AM,33.8,31.3,90,29.88,4.0,ESE,8.1,-,N/A,,Overcast,120,2012-01-26 16:35:00
11:54 AM,33.8,31.5,91,29.86,3.0,ESE,8.1,-,N/A,,Overcast,110,2012-01-26 16:54:00
12:15 PM,33.8,31.6,92,29.84,3.0,East,6.9,-,N/A,,Overcast,90,2012-01-26 17:15:00
12:34 PM,34.2,32.0,92,29.82,3.0,ESE,9.2,-,N/A,,Overcast,110,2012-01-26 17:34:00
12:54 PM,34.5,32.0,90,29.80,4.0,ESE,9.2,-,N/A,,Overcast,110,2012-01-26 17:54:00
1:15 PM,34.5,32.0,90,29.80,4.0,East,5.8,-,N/A,,Overcast,100,2012-01-26 18:15:00
1:34 PM,34.7,32.0,90,29.78,4.0,East,8.1,-,N/A,,Overcast,90,2012-01-26 18:34:00
1:55 PM,34.9,32.0,89,29.76,4.0,East,5.8,-,N/A,,Light Drizzle,80,2012-01-26 18:55:00
2:14 PM,35.1,32.0,89,29.75,4.0,East,5.8,-,N/A,Rain,Light Rain,80,2012-01-26 19:14:00
2:34 PM,35.6,32.4,88,29.74,4.0,ENE,5.8,-,N/A,,Light Drizzle,60,2012-01-26 19:34:00
2:55 PM,35.4,32.4,89,29.73,4.0,East,5.8,-,N/A,Rain,Rain,80,2012-01-26 19:55:00
3:14 PM,35.2,32.5,90,29.72,4.0,East,4.6,-,N/A,,Light Drizzle,80,2012-01-26 20:14:00
3:34 PM,35.1,32.9,92,29.71,2.0,East,5.8,-,N/A,,Overcast,80,2012-01-26 20:34:00
3:55 PM,34.7,32.9,93,29.71,2.0,East,6.9,-,N/A,,Overcast,90,2012-01-26 20:55:00
4:14 PM,34.7,33.1,94,29.71,2.0,ENE,3.5,-,N/A,,Light Drizzle,70,2012-01-26 21:14:00
4:35 PM,34.3,33.3,96,29.70,1.2,East,3.5,-,N/A,Rain,Light Rain,90,2012-01-26 21:35:00
4:55 PM,34.3,33.4,97,29.68,0.8,ENE,3.5,-,N/A,Rain,Rain,70,2012-01-26 21:55:00
5:14 PM,34.2,33.4,97,29.67,0.8,East,5.8,-,N/A,,Light Drizzle,100,2012-01-26 22:14:00
5:35 PM,34.2,33.8,99,29.66,2.0,East,5.8,-,N/A,,Overcast,80,2012-01-26 22:35:00
5:55 PM,34.0,33.4,98,29.65,2.0,East,3.5,-,N/A,,Light Drizzle,90,2012-01-26 22:55:00
6:14 PM,34.0,33.4,98,29.65,1.5,East,5.8,-,N/A,,Drizzle,90,2012-01-26 23:14:00
6:35 PM,34.0,33.4,98,29.65,1.5,East,4.6,-,N/A,,Light Drizzle,100,2012-01-26 23:35:00
6:54 PM,34.0,33.8,99,29.63,1.8,East,5.8,-,N/A,,Light Drizzle,90,2012-01-26 23:54:00
7:15 PM,33.8,33.6,99,29.63,1.5,East,3.5,-,N/A,,Light Drizzle,90,2012-01-27 00:15:00
7:35 PM,34.0,33.6,99,29.63,1.5,East,4.6,-,N/A,,Light Drizzle,80,2012-01-27 00:35:00
7:54 PM,34.0,33.8,99,29.63,1.2,ENE,3.5,-,N/A,,Drizzle,70,2012-01-27 00:54:00
8:15 PM,33.8,33.4,99,29.62,1.0,Calm,Calm,-,N/A,Rain,Rain,0,2012-01-27 01:15:00
8:35 PM,33.8,33.6,99,29.61,1.0,Calm,Calm,-,N/A,,Overcast,0,2012-01-27 01:35:00
8:54 PM,33.8,33.6,99,29.62,1.0,SE,3.5,-,N/A,,Overcast,130,2012-01-27 01:54:00
9:34 PM,33.8,33.4,99,29.58,1.2,Calm,Calm,-,N/A,,Overcast,0,2012-01-27 02:34:00
9:54 PM,33.8,33.4,99,29.57,1.2,Calm,Calm,-,N/A,Rain,Light Rain,0,2012-01-27 02:54:00
10:15 PM,33.8,33.4,99,29.55,1.5,North,3.5,-,N/A,Rain,Light Rain,360,2012-01-27 03:15:00
10:35 PM,33.4,33.4,100,29.54,1.5,Calm,Calm,-,N/A,,Light Drizzle,0,2012-01-27 03:35:00
10:54 PM,33.6,33.4,99,29.54,1.8,North,3.5,-,N/A,Rain,Rain,350,2012-01-27 03:54:00
11:15 PM,33.8,33.4,99,29.53,2.0,Calm,Calm,-,N/A,Rain,Light Rain,0,2012-01-27 04:15:00
11:34 PM,33.8,33.4,99,29.53,2.5,Calm,Calm,-,N/A,,Overcast,0,2012-01-27 04:34:00
11:55 PM,33.6,33.4,99,29.53,2.5,Calm,Calm,-,N/A,,Overcast,0,2012-01-27 04:55:00